Regional Weather Roundup
Issued by NWS Cleveland, OH

Home | Current Version | Previous Version | Text Only | Print | Product List | Glossary On
Versions: 1 2 3 4 5 6 7 8 9 10 11 12 13 14 15 16 17 18 19 20 21 22 23 24 25 26 27 28 29 30 31 32 33 34 35 36 37 38 39 40 41 42 43 44 45 46 47 48 49 50
000
ASUS41 KCLE 220912
RWRCLE
OHIO REGIONAL WEATHER ROUNDUP
NATIONAL WEATHER SERVICE WILMINGTON, OH
500 AM EDT TUE AUG 22 2017

NOTE: "FAIR" INDICATES FEW OR NO CLOUDS BELOW 12,000 FEET WITH NO
SIGNIFICANT WEATHER AND/OR OBSTRUCTIONS TO VISIBILITY.

OHZ001>008-015>018-024>027-034-035-043-044-221000-
   NORTHWEST OHIO

CITY           SKY/WX    TMP DP  RH WIND       PRES   REMARKS
DEFIANCE       FAIR      72  68  87 W10       29.93R
FINDLAY        FAIR      73  67  81 S10       29.92F
TOLEDO EXPRESS FAIR      72  69  90 S10       29.88F
TOLEDO EXEC    FAIR      74  69  85 S9        29.90F
LIMA           FAIR      74  69  85 S10       29.94F
$$

OHZ009>014-019>023-028>033-038-089-221000-
   NORTHEAST OHIO

CITY           SKY/WX    TMP DP  RH WIND       PRES   REMARKS
CLE-HOPKINS    FAIR      77  68  73 S10       29.94F
CLE-LAKEFRONT  FAIR      77  67  71 S12       29.91F
CUY CO. ARPT   NOT AVBL
LORAIN-ELYRIA  FAIR      71  63  75 S7        29.94F
ASHTABULA      FAIR      73  71  93 S9        29.95F
AKRON-CANTON   FAIR      75  67  76 SW10      29.99F
WOOSTER        FAIR      71  68  90 S7        29.98F
MANSFIELD      FAIR      73  67  81 S8        29.98F
YOUNGSTOWN     MOCLDY    73  68  84 S7        29.99F
$$

OHZ042-051>053-060>062-070>072-077>081-221000-
  SOUTHWEST OHIO

CITY           SKY/WX    TMP DP  RH WIND       PRES   REMARKS
CINC-COVINGTON MOCLDY    75  69  81 S9        29.99F
CINC-LUNKEN    FAIR      73  70  90 S5        29.99F
HAMILTON       FAIR      77  69  76 VRB5      29.99F
DAYTON         CLOUDY    75  67  76 SW12      29.98F
WRIGHT-PAT AFB MOCLDY    77  69  77 SW9       29.97F
DAYTON GENERAL FAIR      74  68  81 S8        29.98F
WILMINGTON     FAIR      71  69  93 S6        30.00F
$$

OHZ036-037-039>041-045>050-054>059-063>069-073>076-082>088-221000-
  CENTRAL AND SOUTHEAST OHIO

CITY           SKY/WX    TMP DP  RH WIND       PRES   REMARKS
COLUMBUS       CLOUDY    76  71  85 S8        29.98F
OSU AIRPORT    FAIR      76  70  82 S9        29.98F
BOLTON FIELD   FAIR      74  70  88 S7        29.99F
RICKENBACK AFB FAIR      73  70  91 S9        29.98F
NEWARK         FAIR      74  69  85 S3        29.98F
MARION         FAIR      73  67  81 S8        29.97F
LANCASTER      FAIR      75  68  78 S6        30.00F
ZANESVILLE     FAIR      73  68  84 S5        30.01F
NEW PHILLY     FAIR      71  69  93 SE3       30.00F
$$



USA.gov is the U.S. government's official web portal to all federal, state and local government web resources and services.